Tin City, AK

8:31 PM AKDT on March 22, 2017 (GMT -0800)
Tin City LRRS

Weather History for PATC - November, 2013

Change the Weather History Date:

Sunday, November 17, 2013

  Actual Average Record
Temperature  
Mean Temperature 14 °F -  
Max Temperature 17 °F 23 °F 39 °F (2014)
Min Temperature 10 °F 13 °F 3 °F (2012)
Degree Days  
Heating Degree Days 52    
Moisture  
Dew Point 10 °F    
Average Humidity 80    
Maximum Humidity 100    
Minimum Humidity 67    
Precipitation  
Precipitation 0.00 in - - ()
Sea Level Pressure  
Sea Level Pressure 30.60 in    
Wind  
Wind Speed 10 mph (North)    
Max Wind Speed 18 mph    
Max Gust Speed -    
Visibility 9 miles    
Events Rain , Snow    
Averages and records for this station are not official NWS values.
T = Trace of Precipitation, MM = Missing Value Source: NWS Daily Summary

Daily Weather History Graph

Daily Weather History Graph

Search for Another Location

Airport or City:

Trip Planner

Search our weather history database for the weather conditions in past years. The results will help you decide how hot, cold, wet, or windy it might be!

Date:

Astronomy

Nov. 17, 2013 Rise Set
Actual Time 11:03 AM AKST 4:49 PM AKST
Civil Twilight 9:55 AM AKST 5:56 PM AKST
Nautical Twilight 8:50 AM AKST 7:02 PM AKST
Astronomical Twilight 7:50 AM AKST 8:01 PM AKST
Moon 5:14 PM AKST (11/17) 11:07 AM AKST (11/17)
Length of Visible Light 8h 00m
Length of Day
5h 45m
Full, 100% of the Moon is Illuminated
Nov 17
Full
Nov 25
Last Quarter
Dec 2
New
Dec 9
First Quarter
Dec 17
Full

Hourly Weather History & Observations

Time (AKST) Temp. Windchill Dew Point Humidity Pressure Visibility Wind Dir Wind Speed Gust Speed Precip Events Conditions
12:55 AM 16.7 °F 7.2 °F 9.1 °F 72% 30.60 in 10.0 mi NNE 6.9 mph - N/A   Partly Cloudy
1:16 AM 15.8 °F 5.1 °F 10.4 °F 79% 30.60 in 10.0 mi NE 8.1 mph - N/A Snow Light Snow
1:55 AM 16.0 °F 5.3 °F 14.2 °F 93% 30.61 in 0.8 mi NNE 8.1 mph - N/A Snow Light Snow
2:16 AM 15.8 °F 5.1 °F 15.8 °F 100% 30.61 in 2.5 mi NNE 8.1 mph - N/A Snow Light Snow
2:36 AM 17.6 °F 6.4 °F 15.8 °F 93% 30.61 in 3.0 mi NNE 9.2 mph - N/A Snow Light Snow
2:55 AM 17.1 °F 6.6 °F 15.3 °F 93% 30.61 in 8.0 mi NNE 8.1 mph - N/A Snow Light Snow
3:16 AM 17.6 °F 6.4 °F 14.0 °F 86% 30.61 in 10.0 mi NE 9.2 mph - N/A Rain Light Freezing Rain
3:55 AM 17.6 °F 5.7 °F 12.6 °F 81% 30.61 in 10.0 mi North 10.4 mph - N/A Snow Light Snow
3:56 AM 17.6 °F 5.7 °F 12.2 °F 79% 30.61 in 10.0 mi North 10.4 mph - N/A Rain Light Freezing Rain
4:36 AM 17.6 °F 5.0 °F 10.4 °F 73% 30.61 in 10.0 mi North 11.5 mph - N/A   Light Freezing Drizzle
4:55 AM 17.4 °F 4.1 °F 10.2 °F 73% 30.61 in 10.0 mi North 12.7 mph - N/A   Light Freezing Drizzle
5:16 AM 15.8 °F 2.7 °F 8.6 °F 73% 30.61 in 10.0 mi North 11.5 mph - N/A   Mostly Cloudy
5:36 AM 14.0 °F 0.5 °F 10.4 °F 86% 30.61 in 10.0 mi North 11.5 mph - N/A   Partly Cloudy
5:55 AM 16.5 °F 3.6 °F 13.1 °F 86% 30.61 in 10.0 mi North 11.5 mph - N/A   Mostly Cloudy
6:16 AM 15.8 °F 5.1 °F 14.0 °F 93% 30.61 in 4.0 mi NNE 8.1 mph - N/A Snow Light Snow
6:55 AM 17.2 °F 4.5 °F 11.5 °F 78% 30.61 in 10.0 mi NNE 11.5 mph - N/A Rain Light Freezing Rain
6:56 AM 17.6 °F 5.0 °F 12.2 °F 79% 30.61 in 10.0 mi NNE 11.5 mph - N/A Snow Light Snow
7:16 AM 17.6 °F 2.7 °F 10.4 °F 73% 30.61 in 10.0 mi North 16.1 mph - N/A   Light Freezing Drizzle
7:36 AM 17.6 °F 3.2 °F 10.4 °F 73% 30.61 in 10.0 mi North 15.0 mph - N/A   Overcast
7:55 AM 16.7 °F 2.6 °F 12.9 °F 85% 30.61 in 10.0 mi NNE 13.8 mph - N/A   Light Freezing Drizzle
8:16 AM 15.8 °F 7.2 °F 14.0 °F 93% 30.62 in 10.0 mi NNE 5.8 mph - N/A Rain Light Freezing Rain
8:36 AM 17.6 °F 5.7 °F 12.2 °F 79% 30.62 in 10.0 mi NNE 10.4 mph - N/A   Light Freezing Drizzle
8:55 AM 17.2 °F 2.7 °F 9.7 °F 72% 30.62 in 10.0 mi North 15.0 mph - N/A Rain Light Freezing Rain
9:36 AM 15.8 °F 2.1 °F 8.6 °F 73% 30.62 in 10.0 mi North 12.7 mph - N/A   Mostly Cloudy
9:55 AM 16.9 °F 4.8 °F 10.0 °F 75% 30.62 in 10.0 mi NNW 10.4 mph - N/A   Light Freezing Drizzle
10:16 AM 17.6 °F 3.7 °F 12.2 °F 79% 30.63 in 4.0 mi North 13.8 mph - N/A Snow Light Snow
10:36 AM 17.6 °F 2.2 °F 12.2 °F 79% 30.63 in 10.0 mi North 17.3 mph - N/A Snow Light Snow
10:55 AM 17.1 °F 1.5 °F 12.7 °F 83% 30.63 in 10.0 mi North 17.3 mph - N/A Snow Light Snow
10:56 AM 17.6 °F 2.7 °F 14.0 °F 86% 30.63 in 10.0 mi North 16.1 mph - N/A Rain Light Freezing Rain
11:36 AM 15.8 °F -0.2 °F 10.4 °F 79% 30.63 in 7.0 mi North 17.3 mph - N/A Snow Light Snow
11:55 AM 16.0 °F -0.4 °F 10.6 °F 79% 30.63 in 10.0 mi North 18.4 mph - N/A Rain Light Freezing Rain
12:16 PM 15.8 °F -0.6 °F 10.4 °F 79% 30.63 in 10.0 mi North 18.4 mph - N/A   Light Ice Pellets
12:36 PM 15.8 °F 1.4 °F 10.4 °F 79% 30.64 in 9.0 mi North 13.8 mph - N/A Snow Light Snow
12:55 PM 15.1 °F 1.8 °F 12.0 °F 88% 30.63 in 2.0 mi North 11.5 mph - N/A Snow Light Snow
12:56 PM 15.8 °F 3.4 °F 12.2 °F 86% 30.63 in 1.8 mi North 10.4 mph - N/A Snow Light Snow
1:16 PM 15.8 °F 2.1 °F 12.2 °F 86% 30.63 in 2.0 mi North 12.7 mph - N/A Snow Light Snow
1:36 PM 15.8 °F 0.3 °F 12.2 °F 86% 30.62 in 7.0 mi North 16.1 mph - N/A Snow Light Snow
1:55 PM 14.7 °F 0.7 °F 10.9 °F 85% 30.63 in 10.0 mi North 12.7 mph - N/A Snow Light Snow
2:16 PM 14.0 °F -0.2 °F 10.4 °F 86% 30.62 in 10.0 mi North 12.7 mph - N/A   Scattered Clouds
2:36 PM 14.0 °F 0.5 °F 12.2 °F 93% 30.62 in 4.0 mi North 11.5 mph - N/A Snow Light Snow Showers
2:55 PM 14.4 °F 0.9 °F 11.1 °F 87% 30.61 in 10.0 mi North 11.5 mph - N/A Snow Light Snow Showers
3:16 PM 15.8 °F 2.7 °F 10.4 °F 79% 30.61 in 10.0 mi North 11.5 mph - N/A Snow Light Snow
3:55 PM 14.7 °F 1.4 °F 9.9 °F 81% 30.61 in 5.0 mi North 11.5 mph - N/A Snow Light Snow
4:36 PM 14.0 °F -0.2 °F 10.4 °F 86% 30.59 in 10.0 mi North 12.7 mph - N/A Snow Light Snow Showers
4:55 PM 14.5 °F 1.9 °F 9.7 °F 81% 30.59 in 10.0 mi North 10.4 mph - N/A Snow Light Snow Showers
5:36 PM 15.8 °F 3.4 °F 8.6 °F 73% 30.59 in 9.0 mi North 10.4 mph - N/A Snow Light Snow
5:55 PM 14.7 °F 1.4 °F 8.2 °F 75% 30.58 in 10.0 mi North 11.5 mph - N/A Snow Light Snow
6:16 PM 12.2 °F 0.7 °F 6.8 °F 79% 30.59 in 10.0 mi North 8.1 mph - N/A Snow Light Snow Showers
6:36 PM 12.2 °F -0.2 °F 5.0 °F 73% 30.58 in 10.0 mi North 9.2 mph - N/A Snow Light Snow Showers
6:55 PM 11.7 °F 0.0 °F 5.7 °F 77% 30.58 in 10.0 mi NNW 8.1 mph - N/A Snow Light Snow Showers
7:16 PM 12.2 °F 1.7 °F 5.0 °F 73% 30.58 in 10.0 mi North 6.9 mph - N/A Snow Light Snow Showers
7:55 PM 12.0 °F 0.5 °F 5.7 °F 76% 30.57 in 10.0 mi North 8.1 mph - N/A Snow Light Snow Showers
8:16 PM 12.2 °F -1.0 °F 6.8 °F 79% 30.57 in 10.0 mi North 10.4 mph - N/A Snow Light Snow Showers
8:36 PM 12.2 °F -1.0 °F 5.0 °F 73% 30.57 in 10.0 mi North 10.4 mph - N/A   Scattered Clouds
8:55 PM 11.5 °F -0.2 °F 4.6 °F 74% 30.57 in 10.0 mi North 8.1 mph - N/A Snow Light Snow Showers
9:36 PM 10.4 °F -0.4 °F 5.0 °F 79% 30.56 in 10.0 mi North 6.9 mph - N/A   Partly Cloudy
9:55 PM 12.4 °F 0.9 °F 4.3 °F 70% 30.56 in 10.0 mi NNW 8.1 mph - N/A   Scattered Clouds
10:55 PM 11.3 °F 1.9 °F 3.7 °F 72% 30.55 in 10.0 mi North 5.8 mph - N/A   Mostly Cloudy
11:16 PM 12.2 °F 1.7 °F 3.2 °F 67% 30.54 in 10.0 mi NNW 6.9 mph - N/A   Scattered Clouds
11:55 PM 12.4 °F 3.1 °F 3.9 °F 69% 30.54 in 10.0 mi North 5.8 mph - N/A   Scattered Clouds